TimeEST,TemperatureF,Dew PointF,Humidity,Sea Level PressureIn,VisibilityMPH,Wind Direction,Wind SpeedMPH,Gust SpeedMPH,PrecipitationIn,Events,Conditions,WindDirDegrees,DateUTC
12:04 AM,28.4,26.6,93,29.89,1.2,Calm,Calm,-,0.00,Snow,Light Snow,0,2014-01-17 05:04:00
12:30 AM,28.4,26.6,93,29.89,2.0,Calm,Calm,-,0.01,Snow,Light Snow,0,2014-01-17 05:30:00
12:42 AM,28.4,26.6,93,29.88,3.0,Calm,Calm,-,0.01,,Overcast,0,2014-01-17 05:42:00
12:54 AM,28.9,26.1,89,29.91,5.0,Calm,Calm,-,0.01,,Overcast,0,2014-01-17 05:54:00
1:54 AM,28.9,26.1,89,29.91,5.0,Calm,Calm,-,N/A,,Overcast,0,2014-01-17 06:54:00
2:26 AM,28.4,26.6,93,29.88,5.0,Calm,Calm,-,N/A,,Overcast,0,2014-01-17 07:26:00
2:54 AM,28.9,26.1,89,29.91,5.0,Calm,Calm,-,N/A,,Overcast,0,2014-01-17 07:54:00
3:54 AM,28.0,25.0,88,29.91,5.0,ESE,3.5,-,N/A,,Overcast,120,2014-01-17 08:54:00
4:22 AM,28.4,26.6,93,29.89,6.0,Calm,Calm,-,N/A,,Overcast,0,2014-01-17 09:22:00
4:54 AM,28.0,25.0,88,29.91,9.0,Calm,Calm,-,N/A,,Overcast,0,2014-01-17 09:54:00
5:41 AM,24.8,21.2,86,29.88,7.0,Calm,Calm,-,N/A,,Scattered Clouds,0,2014-01-17 10:41:00
5:54 AM,25.0,23.0,92,29.91,5.0,Calm,Calm,-,N/A,,Clear,0,2014-01-17 10:54:00
6:54 AM,21.0,18.0,88,29.93,8.0,South,3.5,-,N/A,,Mostly Cloudy,170,2014-01-17 11:54:00
8:54 AM,28.0,25.0,88,29.93,6.0,Calm,Calm,-,N/A,,Overcast,0,2014-01-17 13:54:00
9:54 AM,30.9,24.1,76,29.93,10.0,Calm,Calm,-,N/A,,Overcast,0,2014-01-17 14:54:00
10:54 AM,33.1,21.9,64,29.91,10.0,SW,6.9,-,N/A,,Mostly Cloudy,220,2014-01-17 15:54:00
11:54 AM,34.0,21.0,59,29.90,10.0,SSW,5.8,-,N/A,,Overcast,200,2014-01-17 16:54:00
12:54 PM,35.1,21.9,59,29.88,10.0,SSW,8.1,-,N/A,,Overcast,200,2014-01-17 17:54:00
1:54 PM,37.0,21.9,54,29.88,10.0,South,5.8,-,N/A,,Clear,170,2014-01-17 18:54:00
2:54 PM,37.0,21.0,52,29.88,10.0,SSW,5.8,-,N/A,,Clear,200,2014-01-17 19:54:00
3:54 PM,37.9,21.0,51,29.90,10.0,Calm,Calm,-,N/A,,Scattered Clouds,0,2014-01-17 20:54:00
4:54 PM,32.0,21.9,66,29.91,10.0,Calm,Calm,-,N/A,,Clear,0,2014-01-17 21:54:00
5:54 PM,30.0,21.9,72,29.92,10.0,Calm,Calm,-,N/A,,Clear,0,2014-01-17 22:54:00
6:54 PM,28.0,21.9,78,29.91,10.0,ESE,3.5,-,N/A,,Scattered Clouds,120,2014-01-17 23:54:00
7:54 PM,28.0,21.9,78,29.92,10.0,Calm,Calm,-,N/A,,Clear,0,2014-01-18 00:54:00
8:54 PM,28.0,21.9,78,29.92,10.0,Calm,Calm,-,N/A,,Clear,0,2014-01-18 01:54:00
9:54 PM,25.0,21.0,85,29.91,10.0,Calm,Calm,-,N/A,,Clear,0,2014-01-18 02:54:00
10:54 PM,25.0,19.9,81,29.91,9.0,Calm,Calm,-,N/A,,Clear,0,2014-01-18 03:54:00
11:54 PM,25.0,21.0,85,29.89,8.0,Calm,Calm,-,N/A,,Clear,0,2014-01-18 04:54:00